[[{"header":{"parameterUnit":"m.s-1","parameterCategory":2,"la1":30.2991,"la2":30.254,"lo1":-89.0895,"lo2":-89.0444,"dy":0.0017,"dx":0.0017,"nx":28,"ny":28,"refTime":"2024-04-23T21:00:00:Z","depth":"0","parameterNumber":2,"parameterNumberName":"U-component_of_CURRENTS"},"data":[0,0,0,0,0,0,0,0,0,0,0,0,0,0,0,0,0,0,0,0,0,0,0,0,0,0,0,0,0,0,0,0,0,0,0,0,0,0,0,0,0,0,0,0,0,0,0,0,0,0,0,0,0,0,0,0,0,0,-0.2316,-0.2317,0,-0.2456,-0.2459,-0.2461,-0.2584,-0.2584,-0.2584,-0.2584,-0.2645,-0.2646,-0.2648,0,0,0,0,0,0,0,0,0,0,0,0,0,-0.216,-0.2163,-0.2316,-0.2317,-0.2318,-0.2456,-0.2459,-0.2462,-0.2583,-0.2584,-0.2584,-0.2584,-0.2645,-0.2646,-0.2648,0,0,0,0,0,0,0,0,0,0,0,0,0,-0.2269,-0.2165,-0.2316,-0.2386,-0.2392,-0.2455,-0.2459,-0.2463,-0.2583,-0.2584,-0.2584,-0.2585,-0.2644,-0.2646,-0.2648,-0.2654,0,0,-0.2655,-0.2655,0,0,0,0,0,0,0,0,-0.2262,-0.2276,-0.2375,-0.2381,-0.2388,-0.2492,-0.2425,-0.2518,-0.2583,-0.2524,-0.2584,-0.2585,-0.2578,-0.2585,-0.263,-0.2656,-0.2659,-0.2655,-0.2656,-0.2657,-0.2657,0,0,0,0,0,0,0,-0.2255,-0.227,-0.2385,-0.2375,-0.2383,-0.241,-0.2428,-0.2445,-0.2555,-0.2529,-0.2535,-0.2531,-0.2583,-0.2628,-0.2632,-0.266,-0.2655,-0.2656,-0.2658,-0.2659,-0.2683,-0.2683,0,0,0,0,0,0,-0.2212,-0.2264,-0.238,-0.2387,-0.2311,-0.2412,-0.2432,-0.2468,-0.2557,-0.2568,-0.253,-0.2536,-0.2624,-0.2629,-0.2634,-0.2552,-0.2657,-0.2659,-0.266,-0.2684,-0.2683,-0.2683,0,0,0,0,0,0,-0.2209,-0.2223,-0.2374,-0.2316,-0.2335,-0.2413,-0.2454,-0.2471,-0.2511,-0.2556,-0.2569,-0.255,-0.2625,-0.2631,-0.2673,-0.2559,-0.266,-0.2662,-0.2685,-0.2684,-0.2683,-0.2447,0,0,0,0,0,0,-0.2205,-0.2222,-0.2234,-0.2314,-0.2337,-0.2386,-0.2453,-0.2473,-0.2502,-0.2511,-0.2577,-0.2585,-0.2626,-0.267,-0.2675,-0.2563,-0.2663,-0.2685,-0.2684,-0.2683,-0.2456,-0.2438,-0.2424,0,0,0,0,0,-0.22,-0.2226,-0.2235,-0.2248,-0.2353,-0.2383,-0.2399,-0.2462,-0.2501,-0.2506,-0.2583,-0.2582,-0.2665,-0.2673,-0.2679,-0.2564,-0.2686,-0.2685,-0.2683,-0.2463,-0.2442,-0.2424,0,0,0,0,0,0,-0.2172,-0.2241,-0.2254,-0.2302,-0.2317,-0.2399,-0.2418,-0.2451,-0.2521,-0.2539,-0.2598,-0.261,-0.2594,-0.2644,-0.2651,-0.2579,-0.2664,-0.2664,-0.2495,-0.2476,-0.246,-0.2438,-0.2665,0,0,0,0,0,-0.2161,-0.2192,-0.2242,-0.2264,-0.2283,-0.2345,-0.2367,-0.24,-0.2463,-0.2497,-0.2533,-0.258,-0.2595,-0.2592,-0.2629,-0.2597,-0.2604,-0.2528,-0.2512,-0.2497,-0.2491,-0.244,-0.2416,-0.2678,-0.2678,-0.2678,0,0,-0.2154,-0.2186,-0.2207,-0.2255,-0.2294,-0.2311,-0.2365,-0.239,-0.2382,-0.2486,-0.2501,-0.2531,-0.2587,-0.2554,-0.2545,-0.2573,-0.2419,-0.2495,-0.2481,-0.2484,-0.2436,-0.241,-0.2386,-0.2677,-0.2678,-0.2678,0,0,-0.2137,-0.2187,-0.2204,-0.2221,-0.2245,-0.2277,-0.2273,-0.2332,-0.2341,-0.2355,-0.2413,-0.2376,-0.2439,-0.2407,-0.2412,-0.2332,-0.2349,-0.235,-0.2219,-0.2167,-0.2143,-0.2123,-0.2043,-0.2018,-0.2322,-0.2321,-0.2321,0,-0.211,-0.2151,-0.2202,-0.2215,-0.2215,-0.2256,-0.2254,-0.2272,-0.232,-0.2299,-0.2334,-0.2345,-0.2346,-0.2273,-0.2237,-0.2273,-0.2283,-0.2268,-0.2137,-0.2117,-0.21,-0.2025,-0.1999,-0.2309,-0.2311,-0.2312,-0.2313,0,-0.2106,-0.2133,-0.2144,-0.2172,-0.2175,-0.2178,-0.2193,-0.2178,-0.2183,-0.2184,-0.212,-0.213,-0.2131,-0.2083,-0.2132,-0.1996,-0.2051,-0.2125,-0.2163,-0.2057,-0.1987,-0.1964,-0.2293,-0.2297,-0.2301,-0.2303,0,0,-0.2044,-0.2126,-0.2122,-0.2122,-0.215,-0.2147,-0.2116,-0.2081,-0.2053,-0.2026,-0.1955,-0.1896,-0.1898,-0.1907,-0.1911,-0.1825,-0.1646,-0.1917,-0.192,-0.1797,-0.1532,-0.1414,-0.1379,-0.1721,-0.1717,-0.1714,-0.1508,0,-0.2006,-0.202,-0.2066,-0.2048,-0.2054,-0.2069,-0.2036,-0.2001,-0.1979,-0.1923,-0.1843,-0.1806,-0.1836,-0.1806,-0.1723,-0.1701,-0.1591,-0.1695,-0.1692,-0.1691,-0.1563,-0.135,-0.1179,-0.0971,-0.1487,-0.1484,-0.1481,0,-0.1959,-0.1978,-0.1968,-0.1979,-0.1983,-0.1973,-0.1911,-0.1896,-0.1829,-0.1809,-0.1743,-0.1731,-0.1581,-0.1636,-0.1485,-0.1576,-0.1532,-0.149,-0.1484,-0.1447,-0.1531,-0.1178,-0.0912,-0.0941,-0.1447,-0.145,-0.1453,0,-0.1844,-0.1889,-0.1869,-0.1878,-0.191,-0.188,-0.1884,-0.1843,-0.1786,-0.1736,-0.1646,-0.159,-0.1467,-0.1451,-0.1349,-0.1437,-0.118,-0.1298,-0.1131,-0.1124,-0.1009,-0.0997,-0.0734,-0.1162,-0.1162,-0.1163,-0.1163,0,-0.1757,-0.1736,-0.1825,-0.1812,-0.1765,-0.1821,-0.1754,-0.1751,-0.1694,-0.1551,-0.1584,-0.139,-0.1415,-0.1272,-0.1285,-0.1093,-0.1127,-0.1039,-0.1035,-0.092,-0.0903,-0.0959,-0.1054,-0.1155,-0.1157,-0.1158,-0.1159,0,-0.1593,-0.1674,-0.1644,-0.1694,-0.1709,-0.1665,-0.1659,-0.1606,-0.1581,-0.1379,-0.1329,-0.1184,-0.0989,-0.0993,-0.0886,-0.0911,-0.0786,-0.0753,-0.0592,-0.0572,-0.0483,-0.0573,-0.0416,-0.0412,-0.0538,-0.0533,-0.053,0,-0.1493,-0.1477,-0.1523,-0.152,-0.1539,-0.1524,-0.1501,-0.1529,-0.1437,-0.1177,-0.1016,-0.0786,-0.0532,-0.036,-0.0385,-0.0359,-0.05,-0.0225,-0.0337,-0.0364,-0.0465,-0.0621,-0.0644,-0.008,-0.0073,-0.0067,-0.0062,0,-0.1284,-0.1315,-0.1304,-0.1311,-0.1306,-0.1273,-0.1228,-0.1134,-0.1068,-0.0889,-0.0532,-0.0309,-0.0052,0.0137,0.0134,0.0103,-0.0224,-0.0101,-0.0162,-0.0069,-0.0188,-0.022,-0.0342,-0.0009,-0.0015,-0.0019,-0.0021,-0.0024,-0.1102,-0.1051,-0.1078,-0.1063,-0.1064,-0.0985,-0.0892,-0.0815,-0.0627,-0.0313,-0.0161,0.0156,0.044,0.0514,0.0444,0.0401,0.0225,0.0366,0.027,0.012,0.0113,0.0135,0.0469,0.0466,0.0464,0.0462,0.0461,0,-0.0891,-0.0882,-0.0843,-0.0827,-0.076,-0.0819,-0.0677,-0.0551,-0.0295,-0.0073,0.0195,0.0538,0.0818,0.0854,0.0921,0.0803,0.0591,0.0688,0.0504,0.0465,0.0515,0.0525,0.0928,0.0928,0.0928,0.0928,0.0928,0.0928,-0.0794,-0.0708,-0.0705,-0.0552,-0.053,-0.0369,-0.0259,-0.0099,0.0055,0.0362,0.0518,0.0621,0.082,0.1095,0.1087,0.0982,0.071,0.0719,0.0531,0.0556,0.0516,0.0477,0.0469,0.0854,0.0854,0.0537,0.0535,0.0533]},{"header":{"parameterUnit":"m.s-1","parameterCategory":2,"la1":30.2991,"la2":30.254,"lo1":-89.0895,"lo2":-89.0444,"dy":0.0017,"dx":0.0017,"nx":28,"ny":28,"refTime":"2024-04-23T21:00:00:Z","depth":"0","parameterNumber":3,"parameterNumberName":"V-component_of_CURRENTS"},"data":[0,0,0,0,0,0,0,0,0,0,0,0,0,0,0,0,0,0,0,0,0,0,0,0,0,0,0,0,0,0,0,0,0,0,0,0,0,0,0,0,0,0,0,0,0,0,0,0,0,0,0,0,0,0,0,0,0,0,-0.0044,-0.0043,0,0.0073,0.0075,0.0077,0.0201,0.0202,0.0203,0.0203,0.0334,0.0336,0.0339,0,0,0,0,0,0,0,0,0,0,0,0,0,-0.0175,-0.0172,-0.0044,-0.0043,-0.0042,0.0073,0.0075,0.0078,0.0201,0.0202,0.0203,0.0204,0.0333,0.0336,0.0339,0,0,0,0,0,0,0,0,0,0,0,0,0,-0.0086,-0.0172,-0.0044,0.0026,0.0033,0.0072,0.0075,0.0078,0.02,0.0202,0.0203,0.0204,0.0332,0.0336,0.034,0.0337,0,0,0.0352,0.0353,0,0,0,0,0,0,0,0,-0.0091,-0.008,0.0015,0.0021,0.0029,0.0116,0.0076,0.0162,0.02,0.0146,0.0203,0.0205,0.0255,0.0265,0.0297,0.0343,0.0349,0.0352,0.0354,0.0356,0.0357,0,0,0,0,0,0,0,-0.0097,-0.0084,0.0012,0.0015,0.0024,0.0046,0.0061,0.0094,0.0199,0.0151,0.0158,0.0156,0.026,0.0293,0.0301,0.0351,0.0352,0.0355,0.0358,0.0359,0.0483,0.0484,0,0,0,0,0,0,-0.013,-0.009,0.0008,0.0014,-0.0039,0.0046,0.0064,0.0094,0.0199,0.0213,0.0155,0.0161,0.0286,0.0296,0.0306,0.0313,0.0356,0.036,0.0362,0.0482,0.0483,0.0484,0,0,0,0,0,0,-0.0133,-0.0121,0.0003,-0.0045,-0.0028,0.0046,0.0079,0.0095,0.0124,0.02,0.0217,0.0165,0.0287,0.03,0.0341,0.0318,0.0362,0.0365,0.0481,0.0482,0.0484,0.0323,0,0,0,0,0,0,-0.0136,-0.0122,-0.0116,-0.0046,-0.0027,0.0009,0.0078,0.0096,0.0116,0.0126,0.0213,0.0228,0.0289,0.0334,0.0345,0.0324,0.0368,0.048,0.0482,0.0483,0.0327,0.0318,0.0311,0,0,0,0,0,-0.0141,-0.0138,-0.0116,-0.0105,-0.0019,0.0007,0.0019,0.0082,0.0114,0.0116,0.0188,0.0225,0.0354,0.0337,0.0349,0.033,0.0479,0.0481,0.0483,0.033,0.032,0.0311,0,0,0,0,0,0,-0.0192,-0.0124,-0.0098,-0.0074,-0.0049,0.0024,0.003,0.0065,0.0124,0.0138,0.022,0.0239,0.0277,0.033,0.031,0.0381,0.0428,0.0433,0.0309,0.0299,0.0292,0.0283,0.0372,0,0,0,0,0,-0.0206,-0.0184,-0.0129,-0.0118,-0.0103,-0.0042,-0.0026,0.0011,0.0068,0.0096,0.0151,0.0228,0.0295,0.0315,0.0384,0.0395,0.0453,0.0403,0.0395,0.0387,0.0394,0.0456,0.0453,0.0491,0.0491,0.0491,0,0,-0.0223,-0.019,-0.0175,-0.013,-0.0094,-0.0091,-0.0025,-0.001,-0.0006,0.0097,0.0123,0.0197,0.0299,0.0334,0.0354,0.0368,0.0405,0.039,0.0381,0.0394,0.0458,0.0454,0.045,0.0492,0.0492,0.0492,0,0,-0.0271,-0.0217,-0.0222,-0.0206,-0.0179,-0.0138,-0.0145,-0.0088,-0.0053,-0.0032,0.0064,0.0118,0.0197,0.0268,0.0316,0.0304,0.037,0.0331,0.0262,0.032,0.0317,0.0314,0.0357,0.036,0.0314,0.0313,0.0313,0,-0.0303,-0.0291,-0.0228,-0.0242,-0.0235,-0.0169,-0.0185,-0.0148,-0.0091,-0.006,-0.0042,0.011,0.0169,0.0243,0.0244,0.0279,0.0327,0.0274,0.0304,0.0303,0.0303,0.0349,0.0353,0.0306,0.0307,0.0307,0.0308,0,-0.0361,-0.0354,-0.036,-0.0342,-0.0327,-0.0332,-0.028,-0.0259,-0.0217,-0.017,-0.0098,-0.0007,0.0093,0.0109,0.0166,0.0209,0.0247,0.0287,0.0309,0.0289,0.0339,0.0347,0.0295,0.0298,0.03,0.0302,0,0,-0.0411,-0.0401,-0.0402,-0.0405,-0.0377,-0.0364,-0.0357,-0.0312,-0.0262,-0.0237,-0.017,-0.0099,-0.0032,0.0031,0.0109,0.014,0.0156,0.0198,0.0205,0.0208,0.0278,0.0288,0.0298,0.0197,0.0198,0.0199,0.0301,0,-0.0475,-0.0523,-0.0492,-0.052,-0.0529,-0.0464,-0.0443,-0.0394,-0.0319,-0.0237,-0.0164,-0.0058,-0.0065,0.0012,0.0023,0.0171,0.0176,0.0125,0.0329,0.0335,0.0319,0.0308,0.042,0.052,0.0309,0.0311,0.0312,0,-0.0534,-0.0557,-0.0607,-0.0576,-0.0567,-0.0573,-0.0484,-0.0457,-0.0334,-0.0255,-0.0177,-0.0073,0.0002,0.0012,0.0133,0.0105,0.0164,0.0235,0.0242,0.0319,0.0361,0.0519,0.0543,0.0487,0.0325,0.0324,0.0323,0,-0.0592,-0.0617,-0.0657,-0.0659,-0.0627,-0.062,-0.0588,-0.0477,-0.036,-0.0246,-0.0098,-0.0055,0.0099,0.0105,0.022,0.0195,0.0365,0.036,0.0405,0.0407,0.058,0.0594,0.0554,0.0417,0.0417,0.0416,0.0416,0,-0.0655,-0.0675,-0.0691,-0.0713,-0.0712,-0.0674,-0.0604,-0.0537,-0.0343,-0.0131,-0.0102,0.014,0.0146,0.0262,0.0245,0.0355,0.0377,0.0398,0.0437,0.0525,0.0533,0.0558,0.0504,0.042,0.0419,0.0418,0.0418,0,-0.0691,-0.0714,-0.0747,-0.0749,-0.0744,-0.0741,-0.0585,-0.0464,-0.0307,-0.0011,0.0062,0.0338,0.049,0.0448,0.055,0.049,0.0529,0.0546,0.0629,0.0674,0.062,0.0554,0.0581,0.0627,0.06,0.0601,0.0602,0,-0.0708,-0.0742,-0.0773,-0.0777,-0.0781,-0.0749,-0.0657,-0.0479,-0.0266,0.0179,0.0387,0.0623,0.0885,0.0947,0.0824,0.0725,0.0659,0.0761,0.0711,0.0626,0.0584,0.0516,0.0549,0.0879,0.0882,0.0885,0.0887,0,-0.0724,-0.0743,-0.0765,-0.0788,-0.0738,-0.0624,-0.0461,-0.0267,0.006,0.0358,0.0882,0.1124,0.1256,0.1291,0.1079,0.1008,0.0749,0.0808,0.0734,0.0797,0.0718,0.0781,0.0774,0.0908,0.0906,0.0904,0.0903,0.0902,-0.0708,-0.0727,-0.0757,-0.076,-0.0683,-0.0461,-0.0291,-0.0006,0.0372,0.0927,0.1204,0.163,0.1649,0.1427,0.1254,0.0988,0.0945,0.0954,0.0884,0.0823,0.085,0.0854,0.1011,0.101,0.1008,0.1007,0.1006,0,-0.0665,-0.0687,-0.0706,-0.0646,-0.0499,-0.046,-0.0095,0.017,0.0642,0.1106,0.1578,0.1977,0.1845,0.1634,0.1263,0.109,0.1033,0.1006,0.0958,0.0992,0.1042,0.1034,0.1189,0.1189,0.1189,0.1189,0.1189,0.1189,-0.0637,-0.0642,-0.0658,-0.0472,-0.0386,-0.0032,0.021,0.0599,0.0966,0.1602,0.2002,0.2301,0.2216,0.1505,0.109,0.104,0.0964,0.0946,0.0867,0.0891,0.0881,0.0871,0.085,0.0963,0.0963,0.0919,0.0918,0.0917]}],[{"header":{"parameterUnit":"m.s-1","parameterCategory":2,"la1":30.2991,"la2":30.254,"lo1":-89.0895,"lo2":-89.0444,"dy":0.0017,"dx":0.0017,"nx":28,"ny":28,"refTime":"2024-04-23T21:00:00:Z","depth":"2","parameterNumber":2,"parameterNumberName":"U-component_of_CURRENTS"},"data":[0,0,0,0,0,0,0,0,0,0,0,0,0,0,0,0,0,0,0,0,0,0,0,0,0,0,0,0,0,0,0,0,0,0,0,0,0,0,0,0,0,0,0,0,0,0,0,0,0,0,0,0,0,0,0,0,0,0,-0.1142,-0.1143,0,-0.1173,-0.1173,-0.1173,-0.1139,-0.1139,-0.1138,-0.1137,-0.1201,-0.1203,-0.1205,0,0,0,0,0,0,0,0,0,0,0,0,0,-0.1125,-0.1124,-0.1142,-0.1143,-0.1144,-0.1173,-0.1173,-0.1173,-0.114,-0.1139,-0.1138,-0.1137,-0.12,-0.1203,-0.1206,0,0,0,0,0,0,0,0,0,0,0,0,0,-0.1136,-0.1124,-0.1142,-0.1135,-0.1136,-0.1173,-0.1173,-0.1173,-0.114,-0.1139,-0.1138,-0.1137,-0.1199,-0.1202,-0.1206,-0.1249,0,0,-0.1217,-0.1218,0,0,0,0,0,0,0,0,-0.1135,-0.1135,-0.1136,-0.1136,-0.1136,-0.1157,-0.1191,-0.1202,-0.114,-0.1132,-0.1137,-0.1136,-0.1194,-0.1198,-0.1197,-0.1252,-0.1255,-0.1217,-0.1219,-0.1221,-0.1222,0,0,0,0,0,0,0,-0.1134,-0.1135,-0.1148,-0.1137,-0.1137,-0.1156,-0.1155,-0.1192,-0.1164,-0.1132,-0.1131,-0.1145,-0.1193,-0.1193,-0.1198,-0.1256,-0.1217,-0.122,-0.1222,-0.1224,-0.1242,-0.124,0,0,0,0,0,0,-0.114,-0.1133,-0.1147,-0.115,-0.114,-0.1157,-0.1156,-0.1146,-0.1163,-0.1166,-0.1146,-0.1144,-0.1188,-0.1194,-0.12,-0.1211,-0.1221,-0.1224,-0.1226,-0.1243,-0.1241,-0.1239,0,0,0,0,0,0,-0.1139,-0.114,-0.1146,-0.1149,-0.1152,-0.1159,-0.1148,-0.1148,-0.1163,-0.1174,-0.1176,-0.1165,-0.1187,-0.1195,-0.1211,-0.1214,-0.1226,-0.1229,-0.1245,-0.1243,-0.124,-0.1259,0,0,0,0,0,0,-0.1138,-0.1139,-0.1137,-0.1148,-0.1152,-0.117,-0.115,-0.1149,-0.1175,-0.1173,-0.1192,-0.1195,-0.1187,-0.1205,-0.1215,-0.122,-0.1232,-0.1247,-0.1244,-0.1241,-0.126,-0.1257,-0.1255,0,0,0,0,0,-0.1137,-0.1132,-0.1136,-0.1139,-0.1147,-0.1172,-0.1175,-0.1173,-0.1178,-0.1183,-0.1176,-0.1195,-0.1191,-0.1208,-0.1219,-0.1225,-0.1249,-0.1245,-0.1241,-0.1261,-0.1258,-0.1255,0,0,0,0,0,0,-0.1119,-0.113,-0.1133,-0.113,-0.1156,-0.1168,-0.1173,-0.1192,-0.1194,-0.1186,-0.1198,-0.12,-0.12,-0.121,-0.1229,-0.1211,-0.1215,-0.1214,-0.1227,-0.1224,-0.1221,-0.1193,-0.1234,0,0,0,0,0,-0.1119,-0.1121,-0.114,-0.1144,-0.1149,-0.1172,-0.1186,-0.1191,-0.1199,-0.1199,-0.1214,-0.1208,-0.1193,-0.1208,-0.1195,-0.1223,-0.1206,-0.1221,-0.1218,-0.1216,-0.1194,-0.1168,-0.1162,-0.1227,-0.1227,-0.1227,0,0,-0.1114,-0.1126,-0.1125,-0.1143,-0.1152,-0.1158,-0.1174,-0.1194,-0.1193,-0.1209,-0.1209,-0.1207,-0.1192,-0.1183,-0.1187,-0.1201,-0.1189,-0.1211,-0.121,-0.1189,-0.1164,-0.1158,-0.1152,-0.1225,-0.1225,-0.1226,0,0,-0.111,-0.1113,-0.111,-0.1127,-0.1154,-0.1163,-0.1178,-0.1201,-0.1197,-0.1213,-0.1193,-0.1186,-0.1208,-0.1174,-0.1163,-0.1145,-0.1164,-0.1156,-0.1146,-0.1122,-0.1117,-0.1112,-0.1094,-0.1087,-0.117,-0.117,-0.117,0,-0.1108,-0.1103,-0.1119,-0.1123,-0.1137,-0.1167,-0.1172,-0.1171,-0.1199,-0.1199,-0.1206,-0.1186,-0.1185,-0.1152,-0.1127,-0.1141,-0.1138,-0.1172,-0.1121,-0.1116,-0.1111,-0.1093,-0.1086,-0.117,-0.117,-0.117,-0.117,0,-0.1098,-0.11,-0.11,-0.1107,-0.1124,-0.1138,-0.1144,-0.1156,-0.1172,-0.1178,-0.1163,-0.1147,-0.1138,-0.1135,-0.1129,-0.1093,-0.1106,-0.1115,-0.1139,-0.1106,-0.1089,-0.1081,-0.1171,-0.1171,-0.117,-0.117,0,0,-0.1077,-0.109,-0.109,-0.1096,-0.112,-0.1133,-0.1125,-0.1132,-0.1133,-0.114,-0.1134,-0.1094,-0.1107,-0.109,-0.109,-0.1068,-0.1034,-0.1085,-0.1084,-0.1083,-0.0994,-0.0882,-0.0864,-0.1055,-0.1053,-0.1052,-0.1002,0,-0.1067,-0.1069,-0.1081,-0.1088,-0.1089,-0.1111,-0.1111,-0.1121,-0.1125,-0.1123,-0.1097,-0.1087,-0.1084,-0.1092,-0.1064,-0.104,-0.1012,-0.1047,-0.1009,-0.1007,-0.0926,-0.0849,-0.0802,-0.0742,-0.0994,-0.0993,-0.0992,0,-0.1046,-0.1057,-0.1058,-0.1084,-0.1086,-0.1096,-0.1109,-0.1113,-0.1105,-0.1111,-0.1096,-0.1089,-0.1048,-0.1053,-0.0988,-0.1022,-0.0996,-0.0974,-0.0973,-0.0849,-0.0879,-0.081,-0.0718,-0.0979,-0.098,-0.0981,-0.0981,0,-0.1023,-0.1039,-0.1042,-0.105,-0.1079,-0.1085,-0.1103,-0.1111,-0.1101,-0.1102,-0.1094,-0.1069,-0.1047,-0.101,-0.0949,-0.0987,-0.0866,-0.0921,-0.0789,-0.0784,-0.0717,-0.0706,-0.085,-0.0851,-0.0851,-0.0851,-0.0851,0,-0.1006,-0.1009,-0.1033,-0.1036,-0.1042,-0.1078,-0.1075,-0.1092,-0.1094,-0.1065,-0.1086,-0.1048,-0.1034,-0.0967,-0.0934,-0.0808,-0.0853,-0.0747,-0.0742,-0.072,-0.071,-0.0896,-0.0902,-0.0849,-0.0849,-0.085,-0.085,0,-0.0974,-0.099,-0.0993,-0.1024,-0.1026,-0.1033,-0.1043,-0.1031,-0.1063,-0.1019,-0.1018,-0.1018,-0.0935,-0.088,-0.0809,-0.0765,-0.0677,-0.0622,-0.0588,-0.0577,-0.0631,-0.0638,-0.0497,-0.0493,-0.0488,-0.0485,-0.0482,0,-0.0957,-0.0954,-0.0967,-0.0951,-0.0961,-0.0968,-0.0957,-0.0999,-0.0979,-0.0979,-0.0944,-0.0886,-0.0805,-0.0657,-0.0565,-0.0455,-0.0525,-0.0362,-0.0397,-0.0573,-0.0585,-0.0599,-0.0611,-0.0342,-0.0338,-0.0335,-0.0333,0,-0.0915,-0.0918,-0.0912,-0.0886,-0.087,-0.085,-0.0845,-0.0829,-0.0859,-0.0836,-0.0786,-0.0736,-0.0597,-0.0467,-0.0324,-0.0261,-0.0379,-0.0292,-0.0472,-0.0419,-0.0416,-0.0431,-0.0451,-0.0305,-0.0308,-0.031,-0.0311,-0.0312,-0.0865,-0.0845,-0.0824,-0.0792,-0.0766,-0.0721,-0.0683,-0.0679,-0.0645,-0.0587,-0.061,-0.0496,-0.0484,-0.0213,-0.0146,-0.0072,-0.0124,-0.0138,-0.0152,-0.0169,-0.0139,-0.0127,0.0042,0.0041,0.004,0.004,0.0039,0,-0.0776,-0.0749,-0.0721,-0.0672,-0.061,-0.063,-0.0582,-0.0532,-0.0462,-0.039,-0.033,-0.0236,-0.0134,-0.0089,0.006,0.0092,0.0041,0.0102,-0.0008,-0.0032,-0.0055,-0.0026,0.0189,0.0189,0.0189,0.0189,0,0,-0.0717,-0.0653,-0.0638,-0.0515,-0.0481,-0.0379,-0.0335,-0.0282,-0.0206,-0.0109,-0.0029,-0.0021,-0.0027,0.0077,0.0096,0.0172,0.0082,0.0203,0.009,-0.0058,-0.008,-0.0175,-0.0153,0,0,0,0,0]},{"header":{"parameterUnit":"m.s-1","parameterCategory":2,"la1":30.2991,"la2":30.254,"lo1":-89.0895,"lo2":-89.0444,"dy":0.0017,"dx":0.0017,"nx":28,"ny":28,"refTime":"2024-04-23T21:00:00:Z","depth":"2","parameterNumber":3,"parameterNumberName":"V-component_of_CURRENTS"},"data":[0,0,0,0,0,0,0,0,0,0,0,0,0,0,0,0,0,0,0,0,0,0,0,0,0,0,0,0,0,0,0,0,0,0,0,0,0,0,0,0,0,0,0,0,0,0,0,0,0,0,0,0,0,0,0,0,0,0,-0.0491,-0.049,0,-0.0444,-0.0444,-0.0443,-0.0415,-0.0415,-0.0415,-0.0415,-0.0257,-0.0253,-0.0249,0,0,0,0,0,0,0,0,0,0,0,0,0,-0.0513,-0.0513,-0.0491,-0.049,-0.049,-0.0444,-0.0444,-0.0443,-0.0415,-0.0415,-0.0415,-0.0415,-0.0258,-0.0253,-0.0248,0,0,0,0,0,0,0,0,0,0,0,0,0,-0.049,-0.0513,-0.0491,-0.047,-0.0467,-0.0444,-0.0444,-0.0443,-0.0416,-0.0415,-0.0415,-0.0415,-0.026,-0.0254,-0.0248,-0.0218,0,0,-0.0229,-0.0227,0,0,0,0,0,0,0,0,-0.0491,-0.0489,-0.0473,-0.0471,-0.0468,-0.0434,-0.0393,-0.0362,-0.0416,-0.0436,-0.0415,-0.0414,-0.0305,-0.0295,-0.0291,-0.021,-0.0203,-0.0229,-0.0225,-0.0223,-0.0221,0,0,0,0,0,0,0,-0.0493,-0.0491,-0.0474,-0.0473,-0.0469,-0.0447,-0.0444,-0.0388,-0.0372,-0.0434,-0.0432,-0.0425,-0.0303,-0.0297,-0.0286,-0.0201,-0.0229,-0.0224,-0.022,-0.0218,-0.0155,-0.0157,0,0,0,0,0,0,-0.0499,-0.0493,-0.0475,-0.0472,-0.0478,-0.0447,-0.0444,-0.0446,-0.0375,-0.0364,-0.0425,-0.0424,-0.0307,-0.0293,-0.028,-0.0233,-0.0223,-0.0217,-0.0214,-0.0153,-0.0155,-0.0157,0,0,0,0,0,0,-0.05,-0.0499,-0.0477,-0.048,-0.0475,-0.0447,-0.045,-0.0446,-0.0435,-0.0369,-0.0357,-0.0419,-0.0306,-0.0289,-0.0256,-0.0226,-0.0214,-0.0209,-0.0151,-0.0154,-0.0156,-0.0141,0,0,0,0,0,0,-0.0501,-0.0499,-0.0501,-0.0481,-0.0475,-0.0464,-0.045,-0.0445,-0.0431,-0.0428,-0.0359,-0.0345,-0.0305,-0.0265,-0.025,-0.0218,-0.0204,-0.0148,-0.0152,-0.0155,-0.0139,-0.0143,-0.0146,0,0,0,0,0,-0.0502,-0.0506,-0.0502,-0.0499,-0.048,-0.0463,-0.0459,-0.0438,-0.0431,-0.0427,-0.0402,-0.0347,-0.0278,-0.0262,-0.0243,-0.0208,-0.0146,-0.0151,-0.0155,-0.0137,-0.0142,-0.0146,0,0,0,0,0,0,-0.0517,-0.0503,-0.0498,-0.0498,-0.0482,-0.0458,-0.0454,-0.0439,-0.0417,-0.0416,-0.0358,-0.0343,-0.0303,-0.028,-0.0264,-0.0214,-0.0207,-0.0208,-0.02,-0.0204,-0.0208,-0.0206,-0.0199,0,0,0,0,0,-0.0522,-0.0523,-0.0504,-0.0505,-0.05,-0.0478,-0.0467,-0.0455,-0.0433,-0.0424,-0.0378,-0.0345,-0.0308,-0.0277,-0.0246,-0.0205,-0.0182,-0.0183,-0.0187,-0.0189,-0.0183,-0.015,-0.0148,-0.0171,-0.0171,-0.0171,0,0,-0.0531,-0.0521,-0.0523,-0.0508,-0.0497,-0.0487,-0.0471,-0.0462,-0.0447,-0.0407,-0.0376,-0.0347,-0.0307,-0.0271,-0.0251,-0.024,-0.0175,-0.0195,-0.0196,-0.0189,-0.0154,-0.0151,-0.0148,-0.0174,-0.0174,-0.0173,0,0,-0.0541,-0.054,-0.0541,-0.0529,-0.0512,-0.0498,-0.0495,-0.0472,-0.0456,-0.0433,-0.0404,-0.0367,-0.0315,-0.0272,-0.0246,-0.0255,-0.02,-0.0253,-0.0246,-0.0213,-0.0209,-0.0206,-0.0176,-0.017,-0.0247,-0.0247,-0.0247,0,-0.0548,-0.0549,-0.0538,-0.0531,-0.0521,-0.0503,-0.0497,-0.0479,-0.0447,-0.0428,-0.0429,-0.0359,-0.0311,-0.0252,-0.0261,-0.025,-0.0237,-0.0217,-0.0211,-0.0208,-0.0204,-0.0174,-0.0168,-0.0247,-0.0247,-0.0247,-0.0247,0,-0.0556,-0.0554,-0.0555,-0.0542,-0.0529,-0.0526,-0.0499,-0.0482,-0.0465,-0.044,-0.0395,-0.0353,-0.0309,-0.0288,-0.0267,-0.0218,-0.0219,-0.0218,-0.0185,-0.0199,-0.0169,-0.0162,-0.0247,-0.0247,-0.0247,-0.0247,0,0,-0.0575,-0.0563,-0.0563,-0.0559,-0.0536,-0.0529,-0.0503,-0.0471,-0.0455,-0.042,-0.0388,-0.0324,-0.0305,-0.0279,-0.0242,-0.0205,-0.0158,-0.0202,-0.0201,-0.0146,-0.0092,-0.0099,-0.0092,-0.0156,-0.0155,-0.0154,-0.0079,0,-0.0582,-0.0579,-0.0565,-0.0561,-0.0559,-0.0531,-0.0512,-0.0479,-0.0452,-0.0419,-0.0362,-0.0332,-0.03,-0.0284,-0.0236,-0.0185,-0.0141,-0.0178,-0.011,-0.0108,-0.0089,-0.0085,-0.012,-0.0058,-0.0072,-0.0071,-0.007,0,-0.0591,-0.0588,-0.0589,-0.0575,-0.0572,-0.0565,-0.0533,-0.0513,-0.0458,-0.0436,-0.0386,-0.0354,-0.0282,-0.0273,-0.0165,-0.0196,-0.0142,-0.0101,-0.0098,-0.0102,-0.0103,-0.005,-0.0045,-0.0058,-0.0059,-0.006,-0.0061,0,-0.0614,-0.0602,-0.0607,-0.0603,-0.0585,-0.0577,-0.0564,-0.052,-0.0501,-0.0452,-0.0433,-0.0358,-0.0313,-0.0248,-0.015,-0.0166,-0.0039,-0.0051,-0.0,-0.0,-0.0015,-0.0019,0.0028,0.0028,0.0027,0.0027,0.0027,0,-0.0628,-0.063,-0.0624,-0.063,-0.0634,-0.061,-0.0603,-0.0577,-0.0536,-0.0501,-0.045,-0.0402,-0.0307,-0.022,-0.0151,-0.0047,-0.0035,0.0009,0.0022,-0.0016,-0.002,-0.0013,-0.0018,0.003,0.0029,0.0029,0.0028,0,-0.0652,-0.0647,-0.0658,-0.0652,-0.065,-0.0658,-0.0637,-0.062,-0.0587,-0.0538,-0.0525,-0.0425,-0.0313,-0.0209,-0.0082,-0.004,0.0047,0.0086,0.0035,0.0041,0.006,0.0053,0.0127,0.0127,0.0128,0.0128,0.0128,0,-0.0663,-0.0673,-0.0686,-0.0691,-0.0692,-0.0693,-0.0683,-0.0652,-0.0621,-0.054,-0.0505,-0.0397,-0.029,-0.0118,-0.0028,0.0086,0.01,0.0101,0.0065,0.0066,0.0072,0.0065,0.0058,0.0052,0.0052,0.0051,0.0051,0,-0.0683,-0.0696,-0.0706,-0.0722,-0.0723,-0.0712,-0.069,-0.0671,-0.061,-0.0557,-0.045,-0.0372,-0.0212,-0.0092,0.0035,0.0081,0.0068,0.0096,0.013,0.0023,-0.0001,0.0003,-0.0001,0.0048,0.0049,0.0049,0.0049,0.0049,-0.0697,-0.0714,-0.073,-0.0742,-0.0736,-0.0705,-0.0683,-0.0629,-0.0569,-0.0442,-0.0397,-0.0244,-0.02,0.0007,0.0058,0.0098,0.0094,0.008,0.008,0.0081,0.005,0.0027,0.0075,0.0076,0.0076,0.0076,0.0077,0,-0.0701,-0.0716,-0.0734,-0.0738,-0.0723,-0.072,-0.0659,-0.0605,-0.0504,-0.0369,-0.0258,-0.0162,-0.006,0.0019,0.0081,0.0085,0.0068,0.0076,0.0051,0.0052,0.0054,0.0021,0.0039,0.004,0.004,0.0041,0,0,-0.0699,-0.0718,-0.073,-0.0715,-0.071,-0.0665,-0.062,-0.0525,-0.041,-0.0244,-0.0118,-0.0035,0.0004,0.0037,0.0022,0.0059,0.0056,0.0047,0.0066,0.0036,0.0039,0.0035,-0.0018,0,0,0,0,0]}],[{"header":{"parameterUnit":"m.s-1","parameterCategory":2,"la1":30.2991,"la2":30.254,"lo1":-89.0895,"lo2":-89.0444,"dy":0.0017,"dx":0.0017,"nx":28,"ny":28,"refTime":"2024-04-23T21:00:00:Z","depth":"4","parameterNumber":2,"parameterNumberName":"U-component_of_CURRENTS"},"data":[0,0,0,0,0,0,0,0,0,0,0,0,0,0,0,0,0,0,0,0,0,0,0,0,0,0,0,0,0,0,0,0,0,0,0,0,0,0,0,0,0,0,0,0,0,0,0,0,0,0,0,0,0,0,0,0,0,0,-0.0678,-0.0678,0,-0.0676,-0.0676,-0.0676,-0.0659,-0.0659,-0.0659,-0.0659,-0.0658,-0.0659,-0.0659,0,0,0,0,0,0,0,0,0,0,0,0,0,-0.0697,-0.0697,-0.0678,-0.0678,-0.0678,-0.0676,-0.0676,-0.0676,-0.066,-0.0659,-0.0659,-0.0658,-0.0658,-0.0659,-0.0659,0,0,0,0,0,0,0,0,0,0,0,0,0,-0.069,-0.0696,-0.0678,-0.0671,-0.067,-0.0676,-0.0676,-0.0676,-0.066,-0.0659,-0.0659,-0.0658,-0.0658,-0.0659,-0.0659,-0.0671,0,0,-0.066,-0.066,0,0,0,0,0,0,0,0,-0.0691,-0.0689,-0.0672,-0.0671,-0.0671,-0.0669,-0.0683,-0.0675,-0.066,-0.0662,-0.0659,-0.0658,-0.0663,-0.0663,-0.0662,-0.0671,-0.0671,-0.066,-0.0661,-0.0661,-0.0661,0,0,0,0,0,0,0,-0.0691,-0.069,-0.0676,-0.0672,-0.0671,-0.0678,-0.0676,-0.0681,-0.0664,-0.0662,-0.0661,-0.0663,-0.0663,-0.0662,-0.0662,-0.0671,-0.066,-0.0661,-0.0661,-0.0661,-0.0661,-0.0661,0,0,0,0,0,0,-0.0693,-0.069,-0.0676,-0.0676,-0.0681,-0.0678,-0.0676,-0.0669,-0.0664,-0.0663,-0.0663,-0.0662,-0.0661,-0.0661,-0.0662,-0.0677,-0.0661,-0.0661,-0.0661,-0.0661,-0.0661,-0.0661,0,0,0,0,0,0,-0.0693,-0.0691,-0.0676,-0.0685,-0.0683,-0.0678,-0.067,-0.0669,-0.0679,-0.0666,-0.0664,-0.0676,-0.0661,-0.0661,-0.0667,-0.0677,-0.0661,-0.0662,-0.0661,-0.0661,-0.0661,-0.0706,0,0,0,0,0,0,-0.0693,-0.0691,-0.0693,-0.0684,-0.0683,-0.0682,-0.0671,-0.0669,-0.0681,-0.068,-0.0676,-0.0675,-0.0661,-0.0666,-0.0667,-0.0677,-0.0662,-0.0662,-0.0661,-0.0661,-0.0705,-0.0707,-0.0709,0,0,0,0,0,-0.0694,-0.0692,-0.0692,-0.0691,-0.0683,-0.0683,-0.0683,-0.0677,-0.0682,-0.0685,-0.0681,-0.0676,-0.0663,-0.0667,-0.0668,-0.0678,-0.0662,-0.0661,-0.0661,-0.0704,-0.0707,-0.0709,0,0,0,0,0,0,-0.0698,-0.069,-0.069,-0.0685,-0.0688,-0.068,-0.0685,-0.0689,-0.069,-0.0692,-0.0682,-0.068,-0.0686,-0.0674,-0.0679,-0.0672,-0.0658,-0.0658,-0.0691,-0.0693,-0.0695,-0.0691,-0.0662,0,0,0,0,0,-0.0702,-0.0699,-0.0696,-0.0694,-0.0697,-0.0698,-0.0702,-0.0699,-0.0698,-0.0698,-0.0699,-0.0691,-0.0683,-0.0683,-0.0674,-0.0682,-0.0659,-0.0683,-0.0686,-0.0688,-0.0682,-0.0668,-0.0668,-0.0659,-0.0659,-0.0659,0,0,-0.0705,-0.07,-0.07,-0.0696,-0.0698,-0.0703,-0.0699,-0.0705,-0.0711,-0.0699,-0.0713,-0.0706,-0.0687,-0.0686,-0.0687,-0.068,-0.0675,-0.0687,-0.0689,-0.0682,-0.0667,-0.0668,-0.0669,-0.0658,-0.0658,-0.0658,0,0,-0.0709,-0.0706,-0.0708,-0.0711,-0.0716,-0.0715,-0.0723,-0.0727,-0.073,-0.0741,-0.0728,-0.0727,-0.0726,-0.0709,-0.07,-0.0711,-0.0689,-0.0708,-0.0719,-0.0706,-0.0707,-0.0707,-0.0669,-0.0665,-0.0709,-0.0709,-0.0709,0,-0.0717,-0.0713,-0.071,-0.0714,-0.0721,-0.0725,-0.0734,-0.0737,-0.0743,-0.0745,-0.0748,-0.0739,-0.0733,-0.0722,-0.072,-0.0718,-0.0697,-0.0716,-0.071,-0.0711,-0.071,-0.067,-0.0666,-0.0711,-0.0711,-0.071,-0.071,0,-0.0718,-0.0724,-0.0727,-0.0732,-0.0738,-0.0747,-0.0751,-0.0762,-0.0773,-0.0771,-0.0774,-0.0764,-0.0752,-0.0754,-0.0742,-0.0736,-0.0716,-0.0719,-0.0709,-0.0715,-0.0671,-0.0666,-0.0714,-0.0713,-0.0712,-0.0712,0,0,-0.0715,-0.0727,-0.0729,-0.0739,-0.075,-0.0754,-0.0768,-0.0774,-0.0777,-0.0788,-0.0787,-0.0784,-0.0778,-0.0766,-0.0755,-0.0747,-0.0731,-0.0735,-0.0734,-0.0704,-0.0681,-0.0601,-0.0587,-0.074,-0.0739,-0.0739,-0.0648,0,-0.0721,-0.0733,-0.0738,-0.0757,-0.0767,-0.0776,-0.0786,-0.0791,-0.0792,-0.079,-0.0783,-0.0776,-0.0781,-0.0775,-0.077,-0.0738,-0.0721,-0.0753,-0.0672,-0.0669,-0.0605,-0.058,-0.0738,-0.0644,-0.0643,-0.0642,-0.0642,0,-0.0718,-0.073,-0.075,-0.077,-0.0775,-0.0789,-0.08,-0.0807,-0.0799,-0.0797,-0.0789,-0.0777,-0.0761,-0.0767,-0.0722,-0.0744,-0.0713,-0.0692,-0.0688,-0.0593,-0.0579,-0.0638,-0.0632,-0.0633,-0.0634,-0.0634,-0.0635,0,-0.0712,-0.0736,-0.0754,-0.0762,-0.0785,-0.08,-0.0812,-0.0812,-0.0807,-0.0795,-0.0783,-0.0767,-0.0746,-0.0725,-0.0678,-0.0702,-0.0616,-0.0642,-0.0537,-0.053,-0.0613,-0.0613,-0.0606,-0.0606,-0.0606,-0.0606,-0.0607,0,-0.0707,-0.0724,-0.0757,-0.0767,-0.0784,-0.0803,-0.0809,-0.0814,-0.0806,-0.0778,-0.0785,-0.0751,-0.0737,-0.0686,-0.066,-0.0563,-0.0597,-0.052,-0.0499,-0.0631,-0.0635,-0.0608,-0.061,-0.0603,-0.0604,-0.0604,-0.0605,0,-0.0692,-0.0715,-0.0737,-0.0772,-0.078,-0.0792,-0.0804,-0.0795,-0.0802,-0.0762,-0.0757,-0.0728,-0.0657,-0.062,-0.0557,-0.0517,-0.0451,-0.0409,-0.0521,-0.051,-0.038,-0.0385,-0.0286,-0.0282,-0.0279,-0.0276,-0.0274,0,-0.0683,-0.0695,-0.0733,-0.0733,-0.0751,-0.0768,-0.0765,-0.0784,-0.0763,-0.0733,-0.0701,-0.0642,-0.0607,-0.0445,-0.0431,-0.0344,-0.0342,-0.0297,-0.037,-0.0356,-0.0346,-0.0356,-0.0365,-0.0269,-0.0268,-0.0268,-0.0267,0,-0.0662,-0.0682,-0.0693,-0.0697,-0.0703,-0.07,-0.0701,-0.0683,-0.0678,-0.0699,-0.0606,-0.0541,-0.0447,-0.0383,-0.0301,-0.0257,-0.0326,-0.0266,-0.0273,-0.0341,-0.0335,-0.0331,-0.0343,-0.0256,-0.0258,-0.0259,-0.0259,0,-0.0638,-0.0636,-0.0644,-0.0636,-0.0639,-0.0607,-0.0628,-0.0589,-0.0575,-0.0553,-0.0517,-0.0456,-0.0437,-0.0334,-0.0269,-0.02,-0.0206,-0.0197,-0.0208,-0.022,-0.0239,-0.0224,-0.0074,0,0,0,0,0,-0.0599,-0.0574,-0.0571,-0.0551,-0.0553,-0.0547,-0.0558,-0.0577,-0.0583,-0.0494,-0.0501,-0.0411,-0.0298,-0.0278,-0.0189,-0.0234,-0.0209,-0.0129,-0.0207,-0.0197,-0.0209,-0.0236,0,0,0,0,0,0,-0.0563,-0.0557,-0.0545,-0.0471,-0.0441,-0.0429,-0.0431,-0.0447,-0.0406,-0.0418,-0.0365,-0.0364,-0.0273,-0.0328,-0.0173,-0.0161,-0.0193,-0.01,-0.0098,-0.019,-0.0201,-0.0211,-0.0243,0,0,0,0,0]},{"header":{"parameterUnit":"m.s-1","parameterCategory":2,"la1":30.2991,"la2":30.254,"lo1":-89.0895,"lo2":-89.0444,"dy":0.0017,"dx":0.0017,"nx":28,"ny":28,"refTime":"2024-04-23T21:00:00:Z","depth":"4","parameterNumber":3,"parameterNumberName":"V-component_of_CURRENTS"},"data":[0,0,0,0,0,0,0,0,0,0,0,0,0,0,0,0,0,0,0,0,0,0,0,0,0,0,0,0,0,0,0,0,0,0,0,0,0,0,0,0,0,0,0,0,0,0,0,0,0,0,0,0,0,0,0,0,0,0,-0.0377,-0.0377,0,-0.038,-0.038,-0.038,-0.0384,-0.0384,-0.0384,-0.0384,-0.0403,-0.0404,-0.0405,0,0,0,0,0,0,0,0,0,0,0,0,0,-0.0367,-0.0367,-0.0377,-0.0377,-0.0377,-0.038,-0.038,-0.038,-0.0384,-0.0384,-0.0384,-0.0384,-0.0403,-0.0404,-0.0405,0,0,0,0,0,0,0,0,0,0,0,0,0,-0.0372,-0.0367,-0.0377,-0.0378,-0.0378,-0.038,-0.038,-0.038,-0.0384,-0.0384,-0.0384,-0.0384,-0.0403,-0.0404,-0.0405,-0.0414,0,0,-0.0408,-0.0408,0,0,0,0,0,0,0,0,-0.0372,-0.0373,-0.0378,-0.0378,-0.0377,-0.038,-0.0384,-0.0392,-0.0384,-0.0383,-0.0384,-0.0383,-0.0396,-0.0397,-0.0401,-0.0414,-0.0415,-0.0408,-0.0408,-0.0409,-0.0409,0,0,0,0,0,0,0,-0.0372,-0.0373,-0.038,-0.0377,-0.0377,-0.0375,-0.0376,-0.0385,-0.0392,-0.0383,-0.0383,-0.0381,-0.0396,-0.04,-0.0401,-0.0416,-0.0408,-0.0408,-0.0409,-0.0409,-0.0422,-0.0422,0,0,0,0,0,0,-0.0368,-0.0372,-0.038,-0.038,-0.0372,-0.0375,-0.0376,-0.0381,-0.0392,-0.0393,-0.0381,-0.0381,-0.0398,-0.04,-0.0402,-0.0385,-0.0409,-0.0409,-0.041,-0.0423,-0.0422,-0.0422,0,0,0,0,0,0,-0.0368,-0.0369,-0.038,-0.0374,-0.0375,-0.0375,-0.038,-0.0381,-0.0389,-0.0389,-0.0391,-0.0389,-0.0398,-0.0401,-0.0407,-0.0387,-0.041,-0.0411,-0.0423,-0.0423,-0.0422,-0.037,0,0,0,0,0,0,-0.0368,-0.037,-0.0376,-0.0374,-0.0375,-0.038,-0.038,-0.0381,-0.0386,-0.0386,-0.0396,-0.0398,-0.0398,-0.0405,-0.0408,-0.0389,-0.0411,-0.0423,-0.0423,-0.0422,-0.0372,-0.0368,-0.0365,0,0,0,0,0,-0.0368,-0.0376,-0.0377,-0.0378,-0.0384,-0.038,-0.038,-0.0381,-0.0387,-0.0388,-0.0393,-0.0398,-0.0404,-0.0406,-0.0409,-0.039,-0.0423,-0.0423,-0.0422,-0.0374,-0.0369,-0.0365,0,0,0,0,0,0,-0.0377,-0.0377,-0.0378,-0.0386,-0.0382,-0.0379,-0.0384,-0.0385,-0.0391,-0.0396,-0.0399,-0.04,-0.0397,-0.0408,-0.041,-0.0394,-0.0413,-0.0414,-0.0376,-0.0371,-0.0367,-0.0352,-0.0412,0,0,0,0,0,-0.0382,-0.0389,-0.0383,-0.0391,-0.0389,-0.0389,-0.0391,-0.0391,-0.0392,-0.0396,-0.0398,-0.0402,-0.0397,-0.0396,-0.0401,-0.0396,-0.0396,-0.0387,-0.0383,-0.0379,-0.037,-0.0342,-0.0334,-0.0421,-0.0421,-0.0421,0,0,-0.0389,-0.0389,-0.0394,-0.0393,-0.0393,-0.0385,-0.039,-0.0394,-0.0383,-0.0397,-0.0391,-0.0394,-0.0396,-0.0383,-0.0382,-0.0389,-0.0359,-0.0379,-0.0375,-0.0368,-0.0341,-0.0332,-0.0325,-0.042,-0.042,-0.042,0,0,-0.0396,-0.0405,-0.0407,-0.0402,-0.0399,-0.0394,-0.0395,-0.0392,-0.0388,-0.0385,-0.0383,-0.0367,-0.0381,-0.0354,-0.0348,-0.033,-0.0343,-0.0344,-0.0306,-0.0279,-0.0271,-0.0264,-0.0266,-0.026,-0.0338,-0.0337,-0.0337,0,-0.0404,-0.0405,-0.0407,-0.0401,-0.0394,-0.0396,-0.0387,-0.0381,-0.0378,-0.0364,-0.0381,-0.0358,-0.0357,-0.0313,-0.0303,-0.0316,-0.0323,-0.0319,-0.0272,-0.0265,-0.0258,-0.0262,-0.0256,-0.0335,-0.0335,-0.0335,-0.0336,0,-0.0403,-0.0405,-0.0405,-0.0395,-0.0387,-0.0385,-0.0368,-0.0359,-0.0359,-0.0344,-0.0316,-0.0308,-0.0288,-0.0283,-0.0287,-0.0237,-0.0266,-0.0271,-0.0277,-0.0246,-0.0253,-0.0247,-0.0331,-0.0332,-0.0333,-0.0334,0,0,-0.0419,-0.0407,-0.0408,-0.0401,-0.0385,-0.0379,-0.0352,-0.0322,-0.0303,-0.0291,-0.0257,-0.0228,-0.0222,-0.0214,-0.0209,-0.018,-0.014,-0.0208,-0.0208,-0.0201,-0.0108,-0.0131,-0.0127,-0.0143,-0.0141,-0.014,-0.0135,0,-0.0418,-0.041,-0.0397,-0.0384,-0.0378,-0.0357,-0.0331,-0.0302,-0.0284,-0.0253,-0.0218,-0.0199,-0.0197,-0.0192,-0.0154,-0.0154,-0.0121,-0.0143,-0.0148,-0.0149,-0.0163,-0.0119,-0.0135,-0.0131,-0.013,-0.0129,-0.0128,0,-0.0418,-0.0413,-0.0405,-0.0378,-0.0372,-0.0362,-0.032,-0.0296,-0.0242,-0.0225,-0.018,-0.0169,-0.0117,-0.013,-0.0081,-0.0103,-0.0095,-0.0091,-0.0091,-0.0122,-0.0159,-0.0167,-0.0118,-0.0118,-0.0119,-0.012,-0.0121,0,-0.0434,-0.0415,-0.0412,-0.0406,-0.0375,-0.0363,-0.0344,-0.0293,-0.0273,-0.0213,-0.0203,-0.0135,-0.0128,-0.0087,-0.0077,-0.0083,-0.004,-0.0046,-0.0053,-0.0056,-0.0061,-0.0069,0.0007,0.0007,0.0007,0.0007,0.0007,0,-0.0436,-0.0434,-0.0427,-0.0428,-0.042,-0.0386,-0.0366,-0.0331,-0.0284,-0.0256,-0.0202,-0.0181,-0.012,-0.0093,-0.0068,-0.0049,-0.003,-0.0034,-0.0043,-0.0044,-0.0049,-0.0058,-0.0066,0.0007,0.0007,0.0007,0.0007,0,-0.0455,-0.0449,-0.0454,-0.0437,-0.0435,-0.0434,-0.0406,-0.0381,-0.034,-0.0305,-0.0292,-0.0226,-0.0186,-0.0132,-0.0078,-0.0058,-0.0026,-0.0022,-0.0042,-0.0056,-0.0064,-0.0069,-0.0021,-0.0021,-0.0021,-0.0022,-0.0022,0,-0.046,-0.0468,-0.0481,-0.0488,-0.0488,-0.0481,-0.0468,-0.0421,-0.039,-0.0337,-0.0319,-0.0275,-0.0227,-0.0162,-0.0112,-0.0051,-0.0043,-0.0033,-0.0017,-0.0046,-0.006,-0.0065,-0.0069,-0.0023,-0.0023,-0.0023,-0.0023,0,-0.0475,-0.0494,-0.0502,-0.0524,-0.0529,-0.0516,-0.0494,-0.0475,-0.041,-0.0392,-0.0326,-0.0277,-0.0232,-0.0164,-0.012,-0.0078,-0.0038,-0.0037,-0.0035,-0.002,-0.0048,-0.0063,-0.0067,-0.0024,-0.0024,-0.0024,-0.0024,0,-0.0494,-0.0511,-0.0533,-0.0545,-0.0552,-0.0528,-0.0517,-0.0465,-0.0432,-0.0357,-0.0349,-0.0283,-0.0243,-0.0182,-0.0145,-0.0099,-0.0085,-0.007,-0.0067,-0.0065,-0.0076,-0.0118,-0.011,0,0,0,0,0,-0.0501,-0.0517,-0.0539,-0.0547,-0.0553,-0.0551,-0.0513,-0.0488,-0.0441,-0.039,-0.0356,-0.0303,-0.0229,-0.0203,-0.0157,-0.0166,-0.0093,-0.0115,-0.0077,-0.0032,-0.0031,-0.0038,0,0,0,0,0,0,-0.0503,-0.0533,-0.0542,-0.0542,-0.0545,-0.0538,-0.051,-0.0479,-0.0433,-0.0388,-0.0342,-0.0315,-0.024,-0.0258,-0.0167,-0.0156,-0.0129,-0.0081,-0.008,-0.0033,-0.0032,-0.003,-0.0037,0,0,0,0,0]}]]